Flag for Germany Weather past 2 weeks in Dillenburg, Hesse, Germany

Now
48 °F

Passing clouds.


Feels Like: 44 °F
Forecast: 45 / 53 °F
Wind: 9 mph from South

Location: Hessen

Current Time: Oct 24, 2014 at 1:42:30 PM

Latest Report: Oct 24, 2014 at 12:50 PM


Visibility: N/A

Pressure: 30.15 "Hg

Humidity: 76%

Dew point: 41 °F

Location of DillenburgLocation

Historic Weather in Dillenburg — Graph

°F

Dillenburg temperature yesterday

Maximum temperature yesterday: 46 °F (at 1:50 PM)
Minimum temperature yesterday: 41 °F (at 7:20 AM)
Average temperature yesterday: 45 °F

Past Weeks' High & Low Weather Summary

 TemperatureHumidityPressure
High66 °F (Oct 19, 2:50 PM)100% (Oct 9, 12:20 PM)30.21 "Hg (Oct 9, 12:20 PM)
Low37 °F (Oct 22, 7:50 AM)67% (Oct 15, 1:50 PM)29.53 "Hg (Oct 21, 4:50 PM)
Average52 °F93%29.93 "Hg
* Reported Oct 9 12:20 PM — Oct 24 12:20 PM, Dillenburg, Weather by CustomWeather, © 2014

Note: Actual official high and low records may vary slightly from our data, if they occured in-between our weather recording intervals... More about our weather records

Advertising

Dillenburg weather history for previous 24 hours

 ConditionsComfort  
Time TempWeatherWind HumidityBarometerVisibility
12:20 PM
Oct 24
48 °FPassing clouds.10 mph82%30.15 "HgN/A
11:50 AM46 °FScattered clouds.9 mph87%30.18 "Hg6 mi
11:20 AM45 °FScattered clouds.9 mph100%30.18 "Hg5 mi
10:50 AM43 °FFog.8 mph100%30.18 "Hg3 mi
9:50 AM43 °FFog.7 mph100%30.18 "Hg1 mi
9:20 AM43 °FFog.6 mph100%30.18 "Hg1 mi
8:50 AM43 °FFog.6 mph100%30.18 "Hg1 mi
8:20 AM43 °FFog.6 mph100%30.18 "Hg1 mi
7:50 AM43 °FFog.5 mph100%30.15 "Hg0 mi
7:20 AM43 °FFog.6 mph100%30.18 "Hg2 mi
9:50 PM
Oct 23
46 °FPassing clouds.5 mph93%30.21 "Hg4 mi
9:20 PM46 °FPassing clouds.5 mph93%30.21 "Hg4 mi
8:50 PM46 °FPassing clouds.6 mph93%30.21 "Hg4 mi
8:20 PM46 °FPassing clouds.6 mph93%30.21 "HgN/A
7:50 PM46 °FPassing clouds.6 mph93%30.21 "HgN/A
7:20 PM46 °FPartly cloudy.7 mph93%30.21 "Hg4 mi
6:50 PM46 °FPartly sunny.6 mph93%30.21 "HgN/A
6:20 PM46 °FScattered clouds.6 mph93%30.21 "Hg5 mi
5:50 PM46 °FPartly sunny.7 mph93%30.21 "HgN/A
5:20 PM46 °FPartly sunny.6 mph93%30.21 "HgN/A
4:50 PM46 °FPartly sunny.7 mph93%30.21 "HgN/A
4:20 PM46 °FPartly sunny.7 mph93%30.21 "HgN/A
3:50 PM46 °FBroken clouds.8 mph93%30.21 "Hg5 mi
3:20 PM46 °FBroken clouds.7 mph93%30.21 "Hg5 mi
2:50 PM46 °FBroken clouds.7 mph93%30.21 "Hg5 mi
2:20 PM46 °FBroken clouds.6 mph93%30.21 "Hg4 mi
1:50 PM46 °FDrizzle. Broken clouds.7 mph93%30.21 "Hg3 mi
1:20 PM45 °FFog.7 mph100%30.21 "Hg2 mi
Weather by CustomWeather, © 2014

See weather overviewHow to use our weather pages